Klawock, AK

3:51 PM AKDT on August 27, 2016 (GMT -0800)
Klawock

Weather History for PAKW - August, 2013

Change the Weather History Date:

Tuesday, August 20, 2013

  Actual Average Record
Temperature  
Mean Temperature 58 °F -  
Max Temperature 66 °F 61 °F 77 °F (1997)
Min Temperature 51 °F 49 °F 43 °F (2006)
Degree Days  
Heating Degree Days 8    
Growing Degree Days 8 (Base 50)    
Moisture  
Dew Point 52 °F    
Average Humidity 82    
Maximum Humidity 100    
Minimum Humidity 63    
Precipitation  
Precipitation 0.03 in - - ()
Sea Level Pressure  
Sea Level Pressure 30.10 in    
Wind  
Wind Speed 3 mph (SW)    
Max Wind Speed 8 mph    
Max Gust Speed -    
Visibility 10 miles    
Events Rain    
Averages and records for this station are not official NWS values.
T = Trace of Precipitation, MM = Missing Value Source: NWS Daily Summary

Daily Weather History Graph

Daily Weather History Graph

Search for Another Location

Airport or City:

Trip Planner

Search our weather history database for the weather conditions in past years. The results will help you decide how hot, cold, wet, or windy it might be!

Date:

Astronomy

Aug. 20, 2013 Rise Set
Actual Time 5:35 AM AKDT 8:14 PM AKDT
Civil Twilight 4:53 AM AKDT 8:55 PM AKDT
Nautical Twilight 3:59 AM AKDT 9:49 PM AKDT
Astronomical Twilight 2:50 AM AKDT 10:57 PM AKDT
Moon 7:36 PM AKDT (8/20) 5:20 AM AKDT (8/20)
Length of Visible Light 16h 01m
Length of Day
14h 39m
Full, 100% of the Moon is Illuminated
Aug 20
Full
Aug 20
Full
Aug 28
Last Quarter
Sep 5
New
Sep 12
First Quarter

Hourly Weather History & Observations

Time (AKDT) Temp. Dew Point Humidity Pressure Visibility Wind Dir Wind Speed Gust Speed Precip Events Conditions
12:18 AM 55.4 °F 51.8 °F 88% 30.03 in 10.0 mi Variable 4.6 mph - 0.02 in Rain Light Rain
12:28 AM 53.6 °F 53.6 °F 100% 30.03 in 10.0 mi Variable 3.5 mph - 0.02 in Rain Light Rain
12:53 AM 54.0 °F 51.1 °F 90% 30.04 in 10.0 mi South 4.6 mph - 0.02 in   Scattered Clouds
1:53 AM 52.0 °F 51.1 °F 97% 30.05 in 10.0 mi SSW 3.5 mph - N/A   Overcast
2:53 AM 52.0 °F 50.0 °F 93% 30.05 in 10.0 mi South 3.5 mph - N/A   Clear
3:53 AM 52.0 °F 50.0 °F 93% 30.06 in 10.0 mi South 3.5 mph - N/A   Clear
4:53 AM 51.1 °F 50.0 °F 96% 30.07 in 10.0 mi Calm Calm - N/A   Mostly Cloudy
5:53 AM 52.0 °F 51.1 °F 97% 30.08 in 10.0 mi Calm Calm - 0.01 in   Overcast
6:00 AM 51.8 °F 51.8 °F 100% 30.08 in 10.0 mi Calm Calm - N/A   Overcast
6:07 AM 51.8 °F 51.8 °F 100% 30.08 in 10.0 mi Calm Calm - N/A   Overcast
6:22 AM 51.8 °F 51.8 °F 100% 30.08 in 10.0 mi Calm Calm - N/A   Overcast
6:53 AM 52.0 °F 51.1 °F 97% 30.09 in 9.0 mi Calm Calm - N/A   Mostly Cloudy
7:53 AM 55.9 °F 52.0 °F 87% 30.10 in 10.0 mi Calm Calm - N/A   Partly Cloudy
8:53 AM 59.0 °F 52.0 °F 78% 30.11 in 10.0 mi NNE 3.5 mph - N/A   Scattered Clouds
9:53 AM 61.0 °F 48.9 °F 64% 30.12 in 10.0 mi South 6.9 mph - N/A   Clear
10:53 AM 63.0 °F 53.1 °F 70% 30.13 in 10.0 mi West 6.9 mph - N/A   Partly Cloudy
11:53 AM 62.1 °F 51.1 °F 67% 30.14 in 10.0 mi West 5.8 mph - N/A   Mostly Cloudy
12:53 PM 64.9 °F 53.1 °F 65% 30.14 in 10.0 mi SW 5.8 mph - N/A   Scattered Clouds
1:53 PM 63.0 °F 52.0 °F 67% 30.14 in 10.0 mi SW 5.8 mph - N/A   Mostly Cloudy
2:53 PM 64.9 °F 52.0 °F 63% 30.14 in 10.0 mi WSW 8.1 mph - N/A   Mostly Cloudy
3:53 PM 64.9 °F 53.1 °F 65% 30.14 in 10.0 mi NNE 3.5 mph - N/A   Overcast
4:53 PM 64.0 °F 52.0 °F 65% 30.13 in 10.0 mi NW 3.5 mph - N/A   Overcast
5:53 PM 64.0 °F 51.1 °F 63% 30.12 in 10.0 mi WSW 6.9 mph - N/A   Mostly Cloudy
6:53 PM 60.1 °F 53.1 °F 78% 30.12 in 10.0 mi WSW 3.5 mph - N/A   Overcast
7:53 PM 60.1 °F 51.1 °F 72% 30.12 in 10.0 mi South 3.5 mph - N/A   Overcast
8:53 PM 59.0 °F 52.0 °F 78% 30.13 in 10.0 mi Calm Calm - 0.00 in   Overcast
9:53 PM 60.1 °F 50.0 °F 69% 30.13 in 10.0 mi Calm Calm - N/A   Overcast
10:53 PM 57.9 °F 53.1 °F 84% 30.12 in 10.0 mi North 5.8 mph - N/A   Overcast
11:53 PM 57.0 °F 53.1 °F 87% 30.12 in 10.0 mi NE 3.5 mph - N/A   Overcast